Regional Weather Roundup
Issued by NWS

Home | Current Version | Previous Version | Graphics & Text | Print | Product List | Glossary On
Versions: 1 2 3 4 5 6 7 8 9 10 11 12 13 14 15 16 17 18 19 20 21 22 23 24 25 26 27 28 29 30 31 32 33 34 35 36 37 38 39 40 41 42 43 44 45 46 47 48 49 50
000
ASUS43 KDTX 272210
RWRMI
MICHIGAN HOURLY REGIONAL WEATHER ROUNDUP
NATIONAL WEATHER SERVICE DETROIT/PONTIAC MI
600 PM EDT SAT AUG 27 2016

NOTE: "FAIR" INDICATES FEW OR NO CLOUDS BELOW 12,000 FEET WITH NO
SIGNIFICANT WEATHER AND/OR OBSTRUCTION TO VISIBILITY.

MIZ047>049-052>055-059>063-066>070-074>076-081>083-272300-
SOUTHEAST LOWER MICHIGAN

CITY           SKY/WX    TMP DP  RH WIND       PRES   REMARKS
ADRIAN         CLOUDY    74  73  97 SE3       30.10R
ALMA           CLOUDY    74  71  90 SE5       30.08R
ANN ARBOR      CLOUDY    72  71  97 E9        30.10R
BAD AXE        CLOUDY    72  68  88 SE7       30.10S
CARO           CLOUDY    72  70  93 SE8       30.07S
DETROIT CITY   CLOUDY    72  72 100 E9        30.10F
DETROIT        CLOUDY    73  72  96 VRB5      30.11R
FLINT          PTSUNNY   77  70  79 SE12      30.08S
GROSSE ILE     CLOUDY    73  70  92 E5        30.09F
HILLSDALE      CLOUDY    75  70  84 SE3       30.09S
HOWELL         PTSUNNY   73  71  91 SE13      30.09S

CITY           SKY/WX    TMP DP  RH WIND       PRES   REMARKS
JACKSON        PTSUNNY   75  72  90 SE8       30.09R
LAMBERTVILLE   CLOUDY    74  71  89 E5        30.10S
LANSING        CLOUDY    77  69  76 S9        30.08R
LAPEER         CLOUDY    70  68  93 S6        30.10R
MASON          CLOUDY    75  70  83 S12       30.08S
MONROE         CLOUDY    74  73  96 E9        30.09S
MT. CLEMENS    CLOUDY    71  70  96 E12       30.08F
PONTIAC        CLOUDY    72  69  90 SE12      30.09F
PORT HURON     LGT RAIN  70  68  94 SE12      30.13F
TRI CITIES     CLOUDY    75  71  87 SE9       30.07F
MIDLAND        CLOUDY    74  69  83 E3        30.07S
TROY           CLOUDY    73  71  92 CALM      30.12F
SAGINAW HB     CLOUDY    73  70  88 SE9       30.06F
$$
MIZ043>046-050>051-056>058-064>065-071>073-077>080-272300-
SOUTHWEST LOWER MICHIGAN

CITY           SKY/WX    TMP DP  RH WIND       PRES   REMARKS
BATTLE CREEK   PTSUNNY   77  73  87 S8        30.07R
BENTON HARBOR  MOSUNNY   83  71  67 SW6       30.03S
BIG RAPIDS     CLOUDY    75  68  79 SE5       30.06S
COLDWATER      CLOUDY    79  73  81 S3        30.07R
FREMONT        CLOUDY    76  70  81 S6        30.04S
HOLLAND        SUNNY     81  70  69 SW9G16    30.05S
GRAND RAPIDS   PTSUNNY   79  69  71 CALM      30.06S
IONIA          CLOUDY    75  67  77 CALM      30.06F
KALAMAZOO      PTSUNNY   80  70  71 SW9       30.06R
LUDINGTON      CLOUDY    74  69  87 SW9       30.02S
MARSHALL       CLOUDY    79  73  83 S5        30.07R
MOUNT PLEASANT CLOUDY    74  69  85 SE7       30.06F
MUSKEGON       PTSUNNY   77  71  82 S9        30.03F
SOUTH HAVEN    SUNNY     83  71  65 SW7       30.03F
$$
MIZ016>042-272300-
NORTHERN LOWER MICHIGAN

CITY           SKY/WX    TMP DP  RH WIND       PRES   REMARKS
ALPENA         CLOUDY    70  64  81 SE9       30.10F
BEAVER ISLAND  RAIN      64  63  97 NE3       30.06S
BELLAIRE       CLOUDY    73  65  77 CALM      30.04F
CADILLAC       CLOUDY    71  65  83 S8        30.07S
CHARLEVOIX     CLOUDY    70  64  83 SE7       30.07S
FRANKFORT      CLOUDY    74  67  79 S5        30.02S
GAYLORD        CLOUDY    68  62  81 S12       30.09S
GRAYLING       CLOUDY    70  66  88 SE6       30.09S
HARBOR SPRINGS CLOUDY    67  64  87 E7        30.06S
HOUGHTON LAKE  CLOUDY    70  66  87 SE7       30.09F
MANISTEE       CLOUDY    74  68  81 VRB3      30.02S
OSCODA         CLOUDY    71  69  93 SE7       30.08F
PELLSTON       CLOUDY    67  62  84 SE7       30.06F
ROGERS CITY    CLOUDY    68  62  81 SE9       30.10F
TRAVERSE CITY  CLOUDY    75  67  76 SE7       30.02S
$$
MIZ007>008-015-272300-
EASTERN UPPER MICHIGAN

CITY           SKY/WX    TMP DP  RH WIND       PRES   REMARKS
KINROSS        LGT RAIN  64  63  96 SE10      30.09F FOG
MACKINAC ISLAN LGT RAIN  64  64 100 E8G16     30.07S
NEWBERRY       CLOUDY    62  61  97 NE3       30.08S FOG
S. S. MARIE    LGT RAIN  64  62  93 VRB6      30.09F FOG
$$
MIZ004>006-011>014-085-272300-
CENTRAL UPPER MICHIGAN

CITY           SKY/WX    TMP DP  RH WIND       PRES   REMARKS
MANISTIQUE     DRIZZLE   64  61  92 E6        30.05F
ESCANABA       CLOUDY    64  63  94 SE8       30.05S
MENOMINEE      CLOUDY   N/A N/A N/A NE6       30.04F
SAWYER-GWINN   CLOUDY    66  59  77 S6        30.06F
$$
MIZ001>003-009>011-084-272300-
WESTERN UPPER MICHIGAN

CITY           SKY/WX    TMP DP  RH WIND       PRES   REMARKS
IRON MOUNTAIN  CLOUDY    67  58  72 SE5       30.04S
HOUGHTON       CLOUDY    65  58  78 E10       30.05F
IRONWOOD       CLOUDY    65  60  84 NE6       30.03F
$$

ABBREVIATIONS USED IN REMARKS
   TC - TEMPERATURE IN CELSIUS
  WCI - WIND CHILL INDEX
   HX - HEAT INDEX
  VSB - VISIBILITY





USA.gov is the U.S. government's official web portal to all federal, state and local government web resources and services.